This demonstration page uses our WeatherBlox Daily Observations layout. Learn more.

Left ArrowRight Arrow

Hourly Observations for June 12, 2018

Temp ( °F °C ) Dew Point ( °F °C ) Humidity (%) Winds ( mph kmh ) Pressure ( in mb ) Visibility ( mi km ) Precip ( " mm )
12:54 am 00:54 Mostly Clear 69 20.6 62 16.7 78 78 Calm 29.82 1010 10 16 0.00 0.00
1:54 am 01:54 Clear 69 20.6 63 17.2 81 81 NNW 3 6 29.82 1010 10 16 0.00 0.00
3:36 am 03:36 Partly Cloudy 67 19.4 63 17.2 87 87 SW 5 7 29.85 1011 10 16 0.00 0.00
3:54 am 03:54 Mostly Clear 67 19.4 63 17.2 87 87 SSW 5 7 29.83 1010 10 16 0.00 0.00
4:54 am 04:54 Clear 67 19.4 63 17.2 87 87 NNW 6 9 29.81 1010 10 16 0.00 0.00
5:54 am 05:54 Clear 64 17.8 62 16.7 93 93 Calm 29.84 1011 10 16 0.00 0.00
6:54 am 06:54 Sunny 66 18.9 63 17.2 90 90 Calm 29.87 1012 10 16 0.00 0.00
7:54 am 07:54 Sunny 69 20.6 64 17.8 84 84 Calm 29.88 1012 8 13 0.00 0.00
8:54 am 08:54 Sunny 74 23.3 67 19.4 79 79 NNW 6 9 29.90 1013 7 11 0.00 0.00
9:54 am 09:54 Mostly Sunny 77 25 68 20 74 74 NNW 9 15 29.90 1013 7 11 0.00 0.00
10:54 am 10:54 Partly Cloudy 81 27.2 69 20.6 67 67 NNW 10 17 29.88 1012 10 16 0.00 0.00
11:02 am 11:02 Mostly Cloudy 81 27.2 69 20.6 67 67 N 12 19 29.85 1011 10 16 0.00 0.00
11:11 am 11:11 Partly Cloudy 81 27.2 69 20.6 67 67 N 9 15 29.85 1011 10 16 0.00 0.00
11:54 am 11:54 Mostly Sunny 83 28.3 69 20.6 63 63 N 9 15 29.89 1012 10 16 0.00 0.00
12:54 pm 12:54 Sunny 84 28.9 68 20 59 59 N 10 17 29.90 1013 10 16 0.00 0.00
1:54 pm 13:54 Partly Cloudy 83 28.3 68 20 61 61 N 9 15 29.91 1013 10 16 0.00 0.00
2:54 pm 14:54 Sunny 83 28.3 68 20 61 61 NNE 7 11 29.92 1013 10 16 0.00 0.00
3:54 pm 15:54 Mostly Sunny 84 28.9 67 19.4 57 57 N 5 7 29.91 1013 10 16 0.00 0.00
4:54 pm 16:54 Sunny 85 29.4 66 18.9 53 53 NNE 10 17 29.89 1012 10 16 0.00 0.00
5:54 pm 17:54 Sunny 84 28.9 66 18.9 55 55 ENE 9 15 29.88 1012 10 16 0.00 0.00
6:54 pm 18:54 Mostly Sunny 82 27.8 66 18.9 58 58 N 8 13 29.88 1012 10 16 0.00 0.00
7:54 pm 19:54 Mostly Sunny 80 26.7 64 17.8 58 58 N 13 20 29.88 1012 10 16 0.00 0.00
8:54 pm 20:54 Sunny 78 25.6 60 15.6 54 54 N 13 20 29.91 1013 10 16 0.00 0.00
9:54 pm 21:54 Clear 72 22.2 61 16.1 68 68 N 10 17 29.95 1014 10 16 0.00 0.00
10:54 pm 22:54 Clear 68 20 60 15.6 76 76 N 6 9 30.00 1016 9 14 0.00 0.00
11:54 pm 23:54 Clear 68 20 60 15.6 76 76 NNW 6 9 30.02 1017 10 16 0.00 0.00

Powered by AerisWeather